Regional Weather Roundup
Issued by NWS Midland/Odessa, TX

Skip options and go directly to product.
Home | Oldest Version | Previous Version | Current Version | All | Graphics & Text | Save Text | Print | Product List | Glossary On

Skip product version selection by date and time.   
554
ASUS44 KMAF 261010
RWRMAF
MIDLAND AREA WEATHER ROUNDUP
NATIONAL WEATHER SERVICE MIDLAND TX
500 AM CDT FRI AUG 26 2016

...IN SOUTHWEST TEXAS AND SOUTHEAST NEW MEXICO...

CITY           SKY/WX    TMP DP  RH WIND       PRES   REMARKS
ALPINE         CLOUDY    64  62  91 CALM      30.21S
ANDREWS        NOT AVBL
ARTESIA        FAIR      61  61 100 CALM      30.14S
BIG SPRING     MOCLDY    72  67  82 NE6       30.13S
CARLSBAD       FAIR      63  62  97 NW6       30.12R
DRYDEN           N/A     74  69  85 E9        30.04S
FORT STOCKTON  CLOUDY    70  64  81 SE10      30.09F
GUAD PASS      FAIR      61  52  72 NE21      30.21F
HOBBS          MOCLDY    66  66 100 E7        30.17F
MARFA          CLOUDY   N/A N/A N/A N6        30.19S
MIDLAND AIRPK  CLOUDY    71  62  72 E5        30.13S
MIDLAND INTL   MOCLDY    71  63  75 VRB3      30.12S
ODESSA         FAIR      70  62  76 E9        30.12F
PECOS          FAIR      67  65  92 NE6       30.07S
PRESIDIO       NOT AVBL
SEMINOLE       CLOUDY    65  63  94 NE3       30.16S
SNYDER           N/A     67  62  86 N8        30.12S
WINK           FAIR      68  65  90 MISG      30.08F
$$
...OTHER STATIONS IN TEXAS...

CITY           SKY/WX    TMP DP  RH WIND       PRES   REMARKS
ABILENE        FAIR      73  67  81 S6        30.07F
AMARILLO       CLOUDY    61  59  93 NW5       30.16S
AUSTIN         FAIR      73  73 100 CALM      30.01F
BROWNSVILLE    FAIR      76  76 100 CALM      29.95F
CORPUS CHRISTI FAIR      77  75  93 CALM      29.97F
DALLAS FTW     MOCLDY    78  72  81 S7        30.01F
DEL RIO        FAIR      76  72  87 E9        30.00F
EL PASO        FAIR      70  56  61 CALM      30.09S
HOUSTON INT    CLOUDY    75  73  93 NE3       30.01F
LUBBOCK        MOCLDY    65  63  93 N6        30.15F
SAN ANGELO     FAIR      69  65  86 NW3       30.06S
SAN ANTONIO    MOCLDY    77  74  90 S5        30.03F
WACO           FAIR      77  74  90 S7        30.02F
WICHITA FALLS  NOT AVBL
$$
...OTHER LOCATIONS IN NEW MEXICO...

CITY           SKY/WX    TMP DP  RH WIND       PRES   REMARKS
ALAMAGORDO     FAIR      66  50  55 N7        30.13S
ALBUQUERQUE    MOCLDY    65  51  60 N10       30.20S
CANNON AFB     MOCLDY    61  61 100 NE8       30.17R
CLOVIS         FAIR      61  55  82 NE6       30.18R
HOLLOMAN AFB   NOT AVBL
ROSWELL        FAIR      62  57  83 SW5       30.13F
RUIDOSO          N/A     54  50  87 S3        30.31F
SANTA FE       MOCLDY    56  53  90 CALM      30.26F
TRUTH OR CONSE CLOUDY    68  54  60 CALM      30.14S
TUCUMCARI      FAIR      62  58  86 NE8       30.17R
$$

USA.gov is the U.S. government's official web portal to all federal, state and local government web resources and services.